Asheville, NC

8:33 AM EDT on October 24, 2017 (GMT -0400)
Asheville Regional

Weather History for KAVL - October, 2007

Change the Weather History Date:

Tuesday, October 30, 2007

  Actual Average Record
Temperature  
Mean Temperature 47 °F 52 °F  
Max Temperature 65 °F 64 °F 81 °F (1946)
Min Temperature 28 °F 40 °F 20 °F (1910)
Degree Days  
Heating Degree Days 18 13  
Month to date heating degree days 180 264  
Since 1 July heating degree days 214 321  
Cooling Degree Days 0 0  
Month to date cooling degree days 38 7  
Year to date cooling degree days 984 859  
Moisture  
Dew Point 31 °F    
Average Humidity 61    
Maximum Humidity 100    
Minimum Humidity 22    
Precipitation  
Precipitation 0.00 in 0.10 in 1.82 in (1949)
Month to date precipitation 3.02 2.82  
Year to date precipitation 28.84 38.24  
Snow  
Snow 0.00 in 0.00 in T in (1954)
Month to date snowfall 0.0 0.0  
Since 1 July snowfall 0.0 0.0  
Since 1 September snowfall 0.0 0.0  
Snow Depth -    
Sea Level Pressure  
Sea Level Pressure 30.45 in    
Wind  
Wind Speed 2 mph (South)    
Max Wind Speed 13 mph    
Max Gust Speed 15 mph    
Visibility 4 miles    
Events Fog    
T = Trace of Precipitation, MM = Missing Value Source: NWS Daily Summary

Daily Weather History Graph

Daily Weather History Graph

Search for Another Location

Airport or City:

Trip Planner

Search our weather history database for the weather conditions in past years. The results will help you decide how hot, cold, wet, or windy it might be!

Date:

Astronomy

Oct. 30, 2007 Rise Set
Actual Time 7:49 AM EDT 6:37 PM EDT
Civil Twilight 7:23 AM EDT 7:03 PM EDT
Nautical Twilight 6:53 AM EDT 7:33 PM EDT
Astronomical Twilight 6:23 AM EDT 8:03 PM EDT
Moon 10:38 PM EDT (10/30) 1:03 PM EDT (10/30)
Length of Visible Light 11h 40m
Length of Day
10h 47m
Waning Gibbous, 74% of the Moon is Illuminated
Oct 30
Waning Gibbous
Nov 1
Last Quarter
Nov 9
New
Nov 17
First Quarter
Nov 24
Full

Hourly Weather History & Observations

Time (EDT) Temp. Windchill Dew Point Humidity Pressure Visibility Wind Dir Wind Speed Gust Speed Precip Events Conditions
12:54 AM 36.0 °F - 34.0 °F 93% 30.47 in 10.0 mi Calm Calm - N/A   Clear
1:37 AM 33.8 °F - 32.0 °F 93% 30.46 in 1.0 mi Calm Calm - N/A   Clear
1:42 AM 33.8 °F - 32.0 °F 93% 30.46 in 0.2 mi Calm Calm - N/A Fog Fog
1:54 AM 34.0 °F - 32.0 °F 92% 30.46 in 0.2 mi Calm Calm - N/A Fog Fog
2:11 AM 33.8 °F - 32.0 °F 93% 30.45 in 0.5 mi Calm Calm - N/A Fog Fog
2:16 AM 33.8 °F - 32.0 °F 93% 30.45 in 1.2 mi Calm Calm - N/A   Scattered Clouds
2:18 AM 33.8 °F - 30.2 °F 87% 30.45 in 3.0 mi Calm Calm - N/A   Scattered Clouds
2:26 AM 33.8 °F - 30.2 °F 87% 30.45 in 1.5 mi Calm Calm - N/A   Partly Cloudy
2:28 AM 32.0 °F - 30.2 °F 93% 30.45 in 0.8 mi Calm Calm - N/A   Mist
2:38 AM 32.0 °F - 30.2 °F 93% 30.45 in 0.2 mi Calm Calm - N/A Fog Fog
2:54 AM 32.0 °F - 30.9 °F 96% 30.45 in 1.2 mi Calm Calm - N/A   Scattered Clouds
2:57 AM 32.0 °F - 30.2 °F 93% 30.45 in 2.0 mi Calm Calm - N/A   Scattered Clouds
3:08 AM 30.2 °F 26.7 °F 28.4 °F 93% 30.45 in 1.2 mi South 3.5 mph - N/A   Partly Cloudy
3:10 AM 30.2 °F - 28.4 °F 93% 30.45 in 0.8 mi Calm Calm - N/A   Mist
3:16 AM 30.2 °F - 28.4 °F 93% 30.44 in 0.2 mi Calm Calm - N/A Fog Light Freezing Fog
3:24 AM 30.2 °F - 30.2 °F 100% 30.44 in 0.2 mi Calm Calm - N/A Fog Light Freezing Fog
3:30 AM 30.2 °F - 30.2 °F 100% 30.44 in 0.5 mi Calm Calm - N/A Fog Light Freezing Fog
3:37 AM 30.2 °F - 30.2 °F 100% 30.44 in 1.2 mi Calm Calm - N/A   Partly Cloudy
3:39 AM 30.2 °F - 30.2 °F 100% 30.44 in 3.0 mi Calm Calm - N/A   Partly Cloudy
3:54 AM 32.0 °F - 30.0 °F 92% 30.44 in 9.0 mi Calm Calm - N/A   Clear
4:54 AM 30.0 °F - 28.0 °F 92% 30.43 in 10.0 mi Calm Calm - N/A   Clear
5:24 AM 30.2 °F 26.7 °F 26.6 °F 86% 30.43 in 2.0 mi NW 3.5 mph - N/A   Partly Cloudy
5:32 AM 28.4 °F - 26.6 °F 93% 30.43 in 9.0 mi Calm Calm - N/A   Partly Cloudy
5:54 AM 28.0 °F - 26.1 °F 92% 30.45 in 8.0 mi Calm Calm - N/A   Clear
6:06 AM 28.4 °F - 26.6 °F 93% 30.43 in 2.0 mi Calm Calm - N/A   Scattered Clouds
6:11 AM 28.4 °F - 28.4 °F 100% 30.44 in 1.8 mi Calm Calm - N/A   Mostly Cloudy
6:15 AM 28.4 °F - 28.4 °F 100% 30.44 in 3.0 mi Calm Calm - N/A   Mostly Cloudy
6:21 AM 30.2 °F - 28.4 °F 93% 30.44 in 1.8 mi Calm Calm - N/A   Mostly Cloudy
6:26 AM 30.2 °F - 28.4 °F 93% 30.44 in 0.8 mi Calm Calm - N/A   Overcast
6:43 AM 30.2 °F - 28.4 °F 93% 30.44 in 0.2 mi Calm Calm - N/A Fog Light Freezing Fog
6:54 AM 30.9 °F 27.5 °F 28.9 °F 92% 30.46 in 0.2 mi SSE 3.5 mph - N/A Fog Light Freezing Fog
7:54 AM 30.0 °F - 28.9 °F 96% 30.48 in 0.2 mi Calm Calm - N/A Fog Light Freezing Fog
8:29 AM 30.2 °F - 28.4 °F 93% 30.47 in 0.2 mi Calm Calm - N/A Fog Light Freezing Fog
8:54 AM 32.0 °F - 30.9 °F 96% 30.50 in 0.2 mi Calm Calm - N/A Fog Fog
9:47 AM 33.8 °F - 33.8 °F 100% 30.50 in 0.2 mi Calm Calm - N/A Fog Fog
9:54 AM 34.0 °F - 34.0 °F 100% 30.52 in 0.2 mi Calm Calm - N/A Fog Fog
10:11 AM 35.6 °F - 33.8 °F 93% 30.50 in 0.5 mi Calm Calm - N/A Fog Fog
10:20 AM 35.6 °F - 35.6 °F 100% 30.49 in 0.2 mi Calm Calm - N/A Fog Fog
10:36 AM 37.4 °F 34.9 °F 35.6 °F 93% 30.49 in 0.5 mi South 3.5 mph - N/A Fog Fog
10:54 AM 37.9 °F 35.5 °F 37.0 °F 97% 30.51 in 1.0 mi SSE 3.5 mph - N/A   Overcast
11:03 AM 39.2 °F - 37.4 °F 93% 30.49 in 4.0 mi Calm Calm - N/A   Mostly Cloudy
11:30 AM 42.8 °F - 37.4 °F 81% 30.48 in 7.0 mi Calm Calm - N/A   Clear
11:54 AM 48.0 °F - 37.9 °F 68% 30.48 in 7.0 mi Calm Calm - N/A   Clear
12:54 PM 55.0 °F - 34.0 °F 45% 30.45 in 10.0 mi SSE 3.5 mph - N/A   Clear
1:54 PM 62.1 °F - 34.0 °F 35% 30.40 in 10.0 mi Variable 4.6 mph - N/A   Clear
2:54 PM 64.0 °F - 30.0 °F 28% 30.38 in 10.0 mi South 6.9 mph - N/A   Clear
3:54 PM 64.0 °F - 26.1 °F 24% 30.37 in 10.0 mi South 9.2 mph - N/A   Clear
4:54 PM 64.0 °F - 24.1 °F 22% 30.37 in 10.0 mi SSE 6.9 mph - N/A   Clear
5:54 PM 61.0 °F - 26.1 °F 26% 30.37 in 10.0 mi Variable 4.6 mph - N/A   Clear
6:54 PM 55.9 °F - 30.9 °F 39% 30.38 in 10.0 mi SSE 4.6 mph - N/A   Clear
7:54 PM 48.9 °F - 34.0 °F 56% 30.40 in 10.0 mi Calm Calm - N/A   Clear
8:54 PM 44.1 °F - 34.0 °F 68% 30.41 in 10.0 mi Calm Calm - N/A   Clear
9:54 PM 41.0 °F - 35.1 °F 79% 30.42 in 10.0 mi Calm Calm - N/A   Clear
10:54 PM 39.0 °F - 33.1 °F 79% 30.42 in 10.0 mi Calm Calm - N/A   Clear
11:54 PM 37.0 °F - 33.1 °F 86% 30.40 in 10.0 mi Calm Calm - N/A   Clear